Regional Weather Roundup
Issued by NWS Cleveland, OH

Home | Current Version | Previous Version | Graphics & Text | Print | Product List | Glossary On
Versions: 1 2 3 4 5 6 7 8 9 10 11 12 13 14 15 16 17 18 19 20 21 22 23 24 25 26 27 28 29 30 31 32 33 34 35 36 37 38 39 40 41 42 43 44 45 46 47 48 49 50
000
ASUS41 KCLE 250110
RWRCLE
OHIO REGIONAL WEATHER ROUNDUP
NATIONAL WEATHER SERVICE CLEVELAND, OH
800 PM EST WED DEC 24 2014

NOTE: "FAIR" INDICATES FEW OR NO CLOUDS BELOW 12,000 FEET WITH NO
SIGNIFICANT WEATHER AND/OR OBSTRUCTIONS TO VISIBILITY.

OHZ001>008-015>018-024>027-034-035-043-044-250200-
   NORTHWEST OHIO

CITY           SKY/WX    TMP DP  RH WIND       PRES   REMARKS
DEFIANCE       CLOUDY    39  35  86 W14G24    29.48R
FINDLAY        CLOUDY    40  36  86 W31G37    29.47R
TOLEDO EXPRESS LGT RAIN  37  34  89 W24G33    29.42R
TOLEDO EXEC    LGT RAIN  39  35  86 W26G36    29.41R
LIMA           CLOUDY    40  36  86 W23G32    29.52R
$$

OHZ009>014-019>023-028>033-038-089-250200-
   NORTHEAST OHIO

CITY           SKY/WX    TMP DP  RH WIND       PRES   REMARKS
CLE-HOPKINS    LGT RAIN  49  44  83 SW31G44   29.36R
CLE-LAKEFRONT  LGT RAIN  53  45  74 SW22G36   29.30R
CUY CO. ARPT   CLOUDY    54  48  82 SW17G29   29.32R
LORAIN-ELYRIA  LGT RAIN  44  41  89 W32G49    29.37R
ASHTABULA      CLOUDY    57  51  80 S12       29.23F
AKRON-CANTON   LGT RAIN  51  44  77 SW16G25   29.38R
WOOSTER        LGT RAIN  48  43  82 W29G37    29.38R
MANSFIELD      CLOUDY    41  39  93 SW24G36   29.43R FOG
YOUNGSTOWN     CLOUDY    59  51  75 S14       29.28F
$$

OHZ042-051>053-060>062-070>072-077>081-250200-
  SOUTHWEST OHIO

CITY           SKY/WX    TMP DP  RH WIND       PRES   REMARKS
CINC-COVINGTON NOT AVBL
CINC-LUNKEN    CLOUDY    42  38  85 W16G24    29.67R
HAMILTON       CLOUDY    42  38  85 W10G22    29.65R
DAYTON         CLOUDY    41  37  86 W22G30    29.60R
WRIGHT-PAT AFB CLOUDY    40  37  89 SW18      29.59R
DAYTON GENERAL CLOUDY    41  37  86 W16G23    29.60R
WILMINGTON     CLOUDY    40  36  86 W20G26    29.61R
$$

OHZ036-037-039>041-045>050-054>059-063>069-073>076-082>088-250200-
  CENTRAL AND SOUTHEAST OHIO

CITY           SKY/WX    TMP DP  RH WIND       PRES   REMARKS
COLUMBUS       CLOUDY    41  37  86 W26       29.56R
OSU AIRPORT    CLOUDY    41  36  82 W17G25    29.56R
BOLTON FIELD   CLOUDY    40  37  89 W17       29.58R
RICKENBACK AFB CLOUDY    41  37  87 W18G32    29.59R
NEWARK         LGT RAIN  44  38  79 W30G40    29.54R
MARION         CLOUDY    40  35  83 W20G33    29.50R
LANCASTER      CLOUDY    42  37  82 W20G32    29.60R
ZANESVILLE     LGT RAIN  45  40  82 SW21G32   29.53R
NEW PHILLY     LGT RAIN  52  45  77 W15G25    29.41R
$$


USA.gov is the U.S. government's official web portal to all federal, state and local government web resources and services.